Location: Burgwalden
(48.2830°N, 10.7576°E)
Time: 02:21:41
(UTC+00:00)

Cosmos 1125 Rocket - Pass Details

Date: 26 September 2023
Orbit: 755 x 779 km, 74.0° (Epoch: 04 December)

Event Time Altitude Azimuth Distance (km) Brightness Sun altitude
Rises 03:52:26 0° 192° (SSW) 3,218 6.5 -13.4°
Reaches altitude 10° 03:54:48 10° 189° (S) 2,292 5.7 -13.0°
Maximum altitude 03:59:57 65° 108° (ESE) 836 3.9 -12.2°
Drops below altitude 10° 04:05:06 10° 28° (NNE) 2,297 6.5 -11.3°
Sets 04:07:29 0° 26° (NNE) 3,224 7.3 -10.9°
